Hilton Head Island, SC

9:27 PM EDT on September 25, 2017 (GMT -0400)
Hilton Head

Weather History for KHXD - January, 2014

Change the Weather History Date:

Wednesday, January 1, 2014

  Actual Average Record
Temperature  
Mean Temperature 50 °F -  
Max Temperature 53 °F 62 °F 68 °F (2016)
Min Temperature 46 °F 44 °F 37 °F (2015)
Degree Days  
Heating Degree Days 16    
Moisture  
Dew Point 48 °F    
Average Humidity 90    
Maximum Humidity 100    
Minimum Humidity 76    
Precipitation  
Precipitation 0.07 in - - ()
Sea Level Pressure  
Sea Level Pressure 30.29 in    
Wind  
Wind Speed 4 mph (North)    
Max Wind Speed 8 mph    
Max Gust Speed -    
Visibility 7 miles    
Events Rain    
Averages and records for this station are not official NWS values.
T = Trace of Precipitation, MM = Missing Value Source: NWS Daily Summary

Daily Weather History Graph

Daily Weather History Graph

Search for Another Location

Airport or City:

Trip Planner

Search our weather history database for the weather conditions in past years. The results will help you decide how hot, cold, wet, or windy it might be!

Date:

Astronomy

Jan. 01, 2014 Rise Set
Actual Time 7:23 AM EST 5:29 PM EST
Civil Twilight 6:56 AM EST 5:56 PM EST
Nautical Twilight 6:26 AM EST 6:26 PM EST
Astronomical Twilight 5:56 AM EST 6:56 PM EST
Moon 7:16 AM EST (1/1) 6:07 PM EST (1/1)
Length of Visible Light 10h 59m
Length of Day
10h 05m
New Moon, 0% of the Moon is Illuminated
Jan 1
New Moon
Jan 7
First Quarter
Jan 15
Full
Jan 24
Last Quarter
Jan 30
New

Hourly Weather History & Observations

Time (EST) Temp. Windchill Dew Point Humidity Pressure Visibility Wind Dir Wind Speed Gust Speed Precip Events Conditions
12:15 AM 46.4 °F 45.2 °F 44.6 °F 93% 30.37 in 9.0 mi North 3.5 mph - 0.00 in   Clear
12:35 AM 46.4 °F 45.2 °F 44.6 °F 93% 30.35 in 9.0 mi North 3.5 mph - 0.00 in   Clear
12:55 AM 48.2 °F - 44.6 °F 87% 30.35 in 9.0 mi North 3.5 mph - 0.00 in   Clear
1:15 AM 48.2 °F - 44.6 °F 87% 30.35 in 10.0 mi NNE 3.5 mph - 0.00 in   Clear
1:35 AM 48.2 °F - 44.6 °F 87% 30.37 in 10.0 mi North 3.5 mph - 0.00 in   Clear
1:55 AM 48.2 °F - 44.6 °F 87% 30.36 in 10.0 mi North 3.5 mph - 0.00 in   Clear
2:15 AM 48.2 °F - 44.6 °F 87% 30.37 in 10.0 mi North 3.5 mph - 0.00 in   Clear
2:35 AM 48.2 °F - 44.6 °F 87% 30.37 in 10.0 mi North 3.5 mph - 0.00 in   Clear
2:55 AM 48.2 °F - 46.4 °F 93% 30.37 in 10.0 mi North 3.5 mph - 0.00 in   Clear
3:15 AM 48.2 °F - 46.4 °F 93% 30.35 in 10.0 mi NNE 4.6 mph - 0.00 in   Clear
3:35 AM 51.8 °F - 44.6 °F 76% 30.35 in 10.0 mi North 5.8 mph - 0.00 in   Clear
3:55 AM 51.8 °F - 44.6 °F 76% 30.35 in 10.0 mi North 5.8 mph - 0.00 in   Clear
4:15 AM 51.8 °F - 44.6 °F 76% 30.35 in 10.0 mi North 5.8 mph - 0.00 in   Clear
4:35 AM 51.8 °F - 44.6 °F 76% 30.34 in 10.0 mi North 5.8 mph - 0.00 in   Clear
4:55 AM 51.8 °F - 44.6 °F 76% 30.34 in 10.0 mi North 4.6 mph - 0.00 in Rain Light Rain
5:15 AM 51.8 °F - 44.6 °F 76% 30.33 in 10.0 mi NNE 4.6 mph - 0.00 in   Clear
5:35 AM 51.8 °F - 44.6 °F 76% 30.34 in 10.0 mi North 4.6 mph - 0.00 in   Clear
6:50 AM 50.0 °F - 42.8 °F 76% 30.34 in 10.0 mi Calm Calm - N/A   Overcast
7:50 AM 51.8 °F - 44.6 °F 76% 30.34 in 10.0 mi North 5.8 mph - N/A   Overcast
9:00 AM 51.8 °F - 46.4 °F 82% 30.36 in 7.0 mi Calm Calm - N/A Rain Light Rain
9:50 AM 51.8 °F - 48.2 °F 88% 30.35 in 5.0 mi Calm Calm - N/A Rain Light Rain
10:50 AM 51.8 °F - 48.2 °F 88% 30.35 in 9.0 mi NNE 6.9 mph - N/A   Overcast
11:50 AM 53.6 °F - 50.0 °F 88% 30.32 in 8.0 mi North 8.1 mph - N/A Rain Light Rain
12:35 PM 51.8 °F - 50.0 °F 94% 30.30 in 5.0 mi NNE 6.9 mph - N/A Rain Light Rain
12:50 PM 51.8 °F - 50.0 °F 94% 30.29 in 5.0 mi North 5.8 mph - N/A Rain Light Rain
1:50 PM 53.6 °F - 51.8 °F 94% 30.27 in 5.0 mi North 4.6 mph - N/A Rain Light Rain
2:50 PM 53.6 °F - 51.8 °F 94% 30.26 in 5.0 mi North 6.9 mph - N/A Rain Light Rain
3:50 PM 51.8 °F - 50.0 °F 94% 30.26 in 5.0 mi North 6.9 mph - N/A Rain Light Rain
4:50 PM 51.8 °F - 50.0 °F 94% 30.25 in 5.0 mi North 5.8 mph - N/A Rain Light Rain
5:50 PM 51.8 °F - 50.0 °F 94% 30.25 in 5.0 mi North 3.5 mph - N/A Rain Light Rain
6:50 PM 50.0 °F - 50.0 °F 100% 30.25 in 7.0 mi Calm Calm - N/A   Partly Cloudy
7:50 PM 50.0 °F - 50.0 °F 100% 30.23 in 6.0 mi North 3.5 mph - N/A Rain Light Rain
8:15 PM 50.0 °F - 50.0 °F 100% 30.23 in 4.0 mi NNE 3.5 mph - 0.00 in Rain Light Rain
8:35 PM 50.0 °F - 50.0 °F 100% 30.21 in 5.0 mi NNE 3.5 mph - 0.01 in   Light Drizzle
8:55 PM 50.0 °F - 50.0 °F 100% 30.21 in 5.0 mi Calm Calm - 0.02 in   Mostly Cloudy
9:15 PM 51.8 °F - 50.0 °F 94% 30.20 in 5.0 mi North 3.5 mph - 0.00 in   Light Drizzle
9:35 PM 51.8 °F - 51.8 °F 100% 30.20 in 5.0 mi North 3.5 mph - 0.00 in   Light Drizzle
9:55 PM 51.8 °F - 51.8 °F 100% 30.20 in 6.0 mi North 3.5 mph - 0.00 in   Light Drizzle
10:15 PM 51.8 °F - 51.8 °F 100% 30.19 in 5.0 mi Calm Calm - 0.00 in Rain Light Rain
10:35 PM 51.8 °F - 51.8 °F 100% 30.18 in 4.0 mi Calm Calm - 0.00 in Rain Light Rain
10:55 PM 51.8 °F - 51.8 °F 100% 30.17 in 3.0 mi NNE 3.5 mph - 0.02 in Rain Light Rain
11:15 PM 51.8 °F - 51.8 °F 100% 30.17 in 3.0 mi Calm Calm - 0.02 in   Light Drizzle
11:35 PM 51.8 °F - 51.8 °F 100% 30.16 in 3.0 mi Calm Calm - 0.02 in Rain Light Rain
11:55 PM 51.8 °F - 51.8 °F 100% 30.16 in 3.0 mi North 3.5 mph - 0.03 in Rain Light Rain